Regional Weather Roundup
Issued by NWS

Home | Current Version | Previous Version | Graphics & Text | Print | Product List | Glossary On
Versions: 1 2 3 4 5 6 7 8 9 10 11 12 13 14 15 16 17 18 19 20 21 22 23 24 25 26 27 28 29 30 31 32 33 34 35 36 37 38 39 40 41 42 43 44 45 46 47 48 49 50
000
ASUS45 KBOU 091610
RWRCO

WEATHER ROUNDUP FOR COLORADO
NATIONAL WEATHER SERVICE DENVER/BOULDER CO
1000 AM MDT WED JUL 09 2014

NOTE: "FAIR" INDICATES FEW OR NO CLOUDS BELOW 12000 FEET WITH NO
SIGNIFICANT WEATHER AND/OR OBSTRUCTIONS TO VISIBILITY.

COZ001>005-013-030-031-091700-
...NORTHWEST COLORADO...

CITY           SKY/WX    TMP DP  RH WIND       PRES   REMARKS
CRAIG          SUNNY     74  48  39 VRB5      30.23F
HAYDEN         SUNNY     73  43  33 E5        30.26F
MEEKER         MOSUNNY   77  47  34 SE5       30.25F
MOUNT WERNER   SUNNY     59  34  38 W8        30.57S
STEAMBOAT SPGS SUNNY     70  46  42 CALM      30.28F
WALDEN         SUNNY     72  39  30 SW10      30.34F
$$

COZ006>008-011-091700-
...WEST CENTRAL VALLEYS...

CITY           SKY/WX    TMP DP  RH WIND       PRES   REMARKS
GRAND JUNCTION SUNNY     82  47  29 SE8       30.17F
MONTROSE       SUNNY     80  47  31 VRB6      30.26F
EAGLE          MOSUNNY   72  45  37 CALM      30.30F
RIFLE          MOSUNNY   79  45  29 MISG      30.22F
DELTA          SUNNY     80  46  30 S3        30.22F
NUCLA          SUNNY     75  45  33 NW5       30.31S
$$

COZ017>023-064>068-091700-
...SOUTHWEST COLORADO...

CITY           SKY/WX    TMP DP  RH WIND       PRES   REMARKS
DURANGO        SUNNY     71  47  42 VRB3      30.32F
CORTEZ         SUNNY     75  49  39 VRB6      30.27F
PAGOSA SPRINGS SUNNY     67  42  41 CALM      30.40S
TELLURIDE      SUNNY     66  45  45 W6        30.47S
WOLF CREEK PAS NOT AVBL
$$

COZ009-010-012-014-032>034-037-058>063-091700-
...CENTRAL COLORADO...

CITY           SKY/WX    TMP DP  RH WIND       PRES   REMARKS
ASPEN          MOSUNNY   72  41  32 VRB3      30.37F
BUENA VISTA    MOSUNNY   66  41  40 SE3       30.37F
COPPER MTN     MOSUNNY   59  37  44 W17       30.68S
BERTHOUD PASS  FAIR      50  34  53 NW8       30.71S
COTTONWOOD PAS MOSUNNY   64  41  42 CALM      30.51S
GUNNISON       NOT AVBL
KREMMLING      SUNNY     70  37  30 CALM      30.34F
LEADVILLE      MOSUNNY   65  37  35 W10G17    30.50F
MONARCH PASS   SUNNY     52  39  62 SW10      30.77S
SALIDA         MOSUNNY   73  46  38 N9        30.40F
SUNLIGHT       MOSUNNY   63  46  55 CALM      30.61S
WILKERSON PASS MOSUNNY   61  37  41 N8        30.63S
$$

COZ069>075-091700-
...SAN LUIS VALLEY/SANGRE DE CRISTO MOUNTAINS...

CITY           SKY/WX    TMP DP  RH WIND       PRES   REMARKS
ALAMOSA        MOSUNNY   67  47  48 VRB6      30.38F
LA VETA PASS   PTSUNNY   59  45  58 W9        30.52S
SAGUACHE       NOT AVBL
$$

COZ035-036-038>040-091700-
...NORTHERN COLORADO FRONT RANGE...

CITY           SKY/WX    TMP DP  RH WIND       PRES   REMARKS
DENVER INTL AP PTSUNNY   83  48  29 SW8       30.11S
DMNS CITY PARK   N/A     82  47  29 S7        30.10F
AURORA         PTSUNNY   81  49  32 SW8       30.14S
FRONT RANGE AP PTSUNNY   86  46  25 SW5       30.12F
ERIE MUNI ARPT SUNNY     83  49  30 CALM      30.08F
BOULDER MUN AP SUNNY     77  54  44 CALM      30.08F
CENTENNIAL     PTSUNNY   83  40  21 VRB3      30.14F
BROOMFIELD     PTSUNNY   82  50  32 S6        30.13S
FORT COLLINS   MOSUNNY   73  59  60 SE6       30.09F
LONGMONT       MOSUNNY   80  57  46 CALM      30.09F
$$

COZ041-046-047-076>085-087-088-091700-
...PIKES PEAK/PALMER DIVIDE AND SOUTHERN FOOTHILLS...

CITY           SKY/WX    TMP DP  RH WIND       PRES   REMARKS
COLO. SPRINGS  PTSUNNY   72  49  44 VRB3      30.21F
A. F. ACADEMY  SUNNY     72  52  48 VRB1      30.22F
ELLICOTT       NOT AVBL
FALCON         MOSUNNY   73  47  39 CALM      30.26S
FORT CARSON    MOSUNNY   71  52  51 VRB2      30.19F
LIMON          SUNNY     76  51  41 S16       30.15F
MONUMENT HILL  SUNNY     79  37  22 N3        30.24F
TRINIDAD       MOSUNNY   79  45  29 S8        30.19F
$$

COZ042>045-048>051-090-091-091700-
...NORTHEAST COLORADO...

CITY           SKY/WX    TMP DP  RH WIND       PRES   REMARKS
GREELEY ARPT   MOSUNNY   72  59  64 SE7       30.09F
AKRON          SUNNY     78  52  40 S12       30.12R
BURLINGTON     MOSUNNY   76  59  55 S21G29    30.10S
WRAY           MOSUNNY   82  57  42 S12       30.07S
STERLING       SUNNY     77  61  57 NE14G21   30.10F
HOLYOKE        MOSUNNY   77  59  53 NW6       30.15R
FORT MORGAN    SUNNY     75  57  54 N3        30.11R
$$

COZ086-089-092>099-091700-
...SOUTHEAST COLORADO...

CITY           SKY/WX    TMP DP  RH WIND       PRES   REMARKS
PUEBLO         SUNNY     72  56  57 CALM      30.11F
LA JUNTA       MOSUNNY   81  54  39 SW8G18    30.09F
LAMAR          MOSUNNY   83  57  41 S17G26    30.07F
SPRINGFIELD      N/A     74  56  53 S17       30.14F
$$



USA.gov is the U.S. government's official web portal to all federal, state and local government web resources and services.